Back to catalog

STARLINK-32857

AliveCommunicationsVLEO
NORAD 62949·PAYLOAD·🇺🇸 United States

Launched Feb 11, 2025 from Vandenberg Space Force Base

Loading…

Next Passes (next 24 hours)

TLE

FreshSource: CelesTrak SupGP

Epoch: Sep 14, 2026, 21:09 UTC

1 62949C 25029B   26257.88173611  .00023894  00000+0  70618-3 0  2572
2 62949  53.1579  67.6500 0001245  85.3274 104.3288 15.34368457    10

Track STARLINK-32857 in real time with AllMySat

Download on the App Store